This demonstration page uses our WeatherBlox Daily Observations layout. Learn more.

38.88101, -77.10428

Hourly Observations for January 10, 2016

Temp ( °F °C ) Dew Point ( °F °C ) Humidity (%) Winds ( mph kmh ) Pressure ( in mb ) Visibility ( mi km ) Precip ( " mm )
12:08 am 00:08 Cloudy with Light Rain 50 10 48 9 94 94 E 8 13 29.83 1010 10 16.09344 0 0
12:52 am 00:52 Cloudy with Rain 52 11 50 10 94 94 ENE 9 15 29.77 1008 5 8.04672 0.17 4.318
1:48 am 01:48 Cloudy with Light Rain 52 11 50 10 94 94 E 13 20 29.71 1006 8 12.874752 0 0
1:52 am 01:52 Cloudy with Light Rain 52 11 52 11 100 100 E 12 19 29.71 1006 8 12.874752 0.15 3.81
2:13 am 02:13 Cloudy with Light Rain 52 11 50 10 94 94 E 12 19 29.68 1005 6 9.656064 0.05 1.27
2:27 am 02:27 Cloudy with Light Rain 54 12 52 11 94 94 E 13 20 29.68 1005 10 16.09344 0.05 1.27
2:52 am 02:52 Cloudy with Rain 54 12 52 11 94 94 ESE 15 24 29.65 1004 3 4.828032 0.12 3.048
3:13 am 03:13 Cloudy with Rain 54 12 54 12 100 100 SE 10 17 29.65 1004 3 4.828032 0.07 1.778
3:27 am 03:27 Cloudy with Light Rain 55 13 54 12 94 94 SSE 7 11 29.62 1003 5 8.04672 0.09 2.286
3:30 am 03:30 Cloudy with Light Rain 54 12 54 12 100 100 SSE 6 9 29.62 1003 5 8.04672 0 0
3:32 am 03:32 Cloudy with Light Rain 54 12 54 12 100 100 SSE 6 9 29.62 1003 5 8.04672 0 0
3:40 am 03:40 Cloudy with Light Rain 54 12 54 12 100 100 SSE 8 13 29.62 1003 4 6.437376 0 0
3:52 am 03:52 Cloudy with Light Rain 55 13 54 12 94 94 SE 10 17 29.62 1003 8 12.874752 0.11 2.794
4:52 am 04:52 Cloudy 57 14 55 13 94 94 S 14 22 29.56 1001 10 16.09344 0.01 0.254
5:52 am 05:52 Cloudy 55 13 54 12 94 94 S 13 20 29.53 1000 10 16.09344 0 0
6:52 am 06:52 Cloudy with Light Rain 55 13 54 12 94 94 S 14 22 29.5 999 6 9.656064 0.001 0.001
7:52 am 07:52 Cloudy 54 12 54 12 100 100 S 13 20 29.47 998 10 16.09344 0.001 0.001
8:52 am 08:52 Mostly Cloudy 57 14 55 13 94 94 S 14 22 29.47 998 10 16.09344 0 0
9:27 am 09:27 Mostly Cloudy 61 16 55 13 83 83 SSW 17 28 29.47 998 10 16.09344 0 0
9:52 am 09:52 Mostly Cloudy 61 16 54 12 77 77 SW 28 44 29.47 998 10 16.09344 0 0
10:52 am 10:52 Mostly Cloudy 59 15 52 11 77 77 SW 16 26 29.47 998 10 16.09344 0 0
11:52 am 11:52 Mostly Cloudy 61 16 50 10 68 68 SW 21 33 29.44 997 10 16.09344 0 0
12:52 pm 12:52 Mostly Cloudy 63 17 45 7 52 52 SW 17 28 29.41 996 10 16.09344 0 0
1:52 pm 13:52 Mostly Cloudy 61 16 43 6 52 52 SW 22 35 29.41 996 10 16.09344 0 0
2:52 pm 14:52 Mostly Cloudy 61 16 43 6 52 52 WSW 21 33 29.41 996 9 14.484096 0 0
3:52 pm 15:52 Mostly Cloudy with Light Rain 61 16 39 4 45 45 WSW 25 41 29.44 997 10 16.09344 0.001 0.001
4:08 pm 16:08 Mostly Cloudy 59 15 41 5 51 51 W 21 33 29.47 998 10 16.09344 0 0
4:52 pm 16:52 Cloudy 55 13 36 2 47 47 NW 20 31 29.53 1000 10 16.09344 0.001 0.001
5:52 pm 17:52 Partly Cloudy 48 9 28 -2 46 46 NW 26 43 29.59 1002 10 16.09344 0 0
6:52 pm 18:52 Mostly Clear 46 8 28 -2 50 50 WNW 16 26 29.65 1004 10 16.09344 0 0
7:52 pm 19:52 Mostly Clear 45 7 27 -3 49 49 WNW 17 28 29.71 1006 10 16.09344 0 0
8:52 pm 20:52 Partly Cloudy 43 6 25 -4 49 49 WNW 16 26 29.74 1007 10 16.09344 0 0
9:52 pm 21:52 Mostly Clear 39 4 23 -5 52 52 NW 15 24 29.77 1008 10 16.09344 0 0
10:52 pm 22:52 Mostly Clear 39 4 19 -7 45 45 NW 16 26 29.8 1009 10 16.09344 0 0
11:52 pm 23:52 Mostly Clear 37 3 18 -8 45 45 WNW 18 30 29.83 1010 10 16.09344 0 0

Powered by AerisWeather